Snowfall_Accumulation
nan nan nan nan nan nan nan nan nan nan nan nan nan nan nan nan nan 0.0 0.0 0.0 0.0 nan nan 0.0 0.0 0.0 0.0 0.0 0.0 0.0 0.0 0.0 0.0 0.0 0.0 0.0 0.0 0.0 0.0 0.0 0.0 0.0 0.0 0.0 0.0
nan nan nan nan nan nan nan nan nan nan nan nan nan nan nan nan 0.0 0.0 nan nan nan nan 0.0 0.0 0.0 0.0 0.0 0.0 0.0 0.0 0.0 0.0 0.0 0.0 0.0 0.0 0.0 0.0 0.0 0.0 0.0 0.0 0.0 0.0 0.0
nan nan nan nan nan nan nan nan nan nan nan nan nan nan nan 0.0 0.0 0.0 nan nan nan 0.0 0.0 0.0 0.0 0.0 0.0 0.0 0.0 0.0 0.0 0.0 0.0 0.0 0.0 0.0 0.0 0.0 0.0 0.0 0.0 0.0 0.0 0.0 0.0
nan nan nan nan nan nan nan nan nan nan nan nan nan nan nan 0.0 0.0 0.0 nan nan nan 0.0 0.0 0.0 0.0 0.0 0.0 0.0 0.0 0.0 0.0 0.0 0.0 0.0 0.0 0.0 0.0 0.0 0.0 0.0 0.0 0.0 0.0 0.0 0.0
nan nan nan nan nan nan nan nan nan nan nan nan nan nan 0.0 0.0 0.0 0.0 nan nan 0.0 0.0 0.0 0.0 0.0 0.0 0.0 0.0 0.0 0.0 0.0 0.0 0.0 0.0 0.0 0.0 0.0 0.0 0.0 0.0 0.0 0.0 0.0 0.0 0.0
nan nan nan nan nan nan nan nan nan nan nan nan nan nan 0.0 0.0 0.0 0.0 0.0 0.0 0.0 0.0 0.0 0.0 0.0 0.0 0.0 0.0 0.0 0.0 0.0 0.0 0.0 0.0 0.0 0.0 0.0 0.0 0.0 0.0 0.0 0.0 0.0 0.0 0.0
nan nan nan nan nan nan nan nan nan nan nan nan nan 0.0 0.0 0.0 0.0 0.0 0.0 0.0 0.0 0.0 0.0 0.0 0.0 0.0 0.0 0.0 0.0 0.0 0.0 0.0 0.0 0.0 0.0 0.0 0.0 0.0 0.0 0.0 0.0 0.0 0.0 0.0 0.0
nan nan nan nan nan nan nan nan nan nan nan nan nan 0.0 0.0 0.0 0.0 0.0 0.0 0.0 0.0 0.0 0.0 0.0 0.0 0.0 0.0 0.0 0.0 0.0 0.0 0.0 0.0 0.0 0.0 0.0 0.0 0.0 0.0 0.0 0.0 0.0 0.0 0.0 0.0
nan nan nan nan nan nan nan nan nan nan nan nan 0.0 0.0 0.0 nan 0.0 0.0 0.0 0.0 0.0 0.0 0.0 0.0 0.0 0.0 0.0 0.0 0.1 0.0 0.0 0.0 0.0 0.0 0.0 0.0 0.0 0.0 0.0 0.0 0.0 0.0 0.0 0.0 0.0
nan nan nan nan nan nan nan nan nan nan 0.0 0.0 0.0 0.0 0.0 0.0 0.0 0.0 0.0 0.0 0.0 0.0 0.0 0.0 0.0 0.0 0.0 0.0 2.4 0.0 0.0 0.0 0.0 0.0 0.0 0.0 0.0 0.0 0.0 0.0 0.0 0.0 0.0 0.0 0.0
nan nan nan nan nan nan 0.0 0.0 0.0 0.0 0.0 0.0 0.0 0.0 0.0 0.0 0.0 0.0 0.0 0.0 0.0 0.0 0.0 0.0 0.0 0.2 0.0 0.0 0.0 0.0 0.1 0.0 0.0 0.0 0.0 0.0 0.0 0.0 0.0 0.0 0.0 0.0 0.0 0.0 0.0
nan nan nan nan nan nan 0.0 0.0 0.0 0.0 0.0 0.0 0.0 0.0 0.0 0.0 0.0 0.0 0.0 0.0 0.0 0.0 0.0 0.1 0.0 0.0 0.0 0.0 0.0 0.0 0.1 0.1 0.0 0.0 0.0 0.0 0.0 0.0 0.0 0.0 0.0 0.0 0.0 0.0 0.0
nan nan nan nan nan 0.0 0.0 0.0 0.0 0.0 0.0 0.0 0.0 0.0 0.0 0.0 0.0 0.0 0.0 0.0 0.0 0.0 0.0 0.1 0.0 0.0 0.0 0.0 0.0 0.0 0.1 0.0 0.0 0.0 0.0 0.0 0.4 0.1 0.0 0.0 0.0 0.0 0.0 0.0 0.1
nan nan nan nan nan 0.0 0.0 0.0 0.0 0.0 1.3 0.1 0.0 0.0 0.0 0.0 0.0 0.0 0.0 0.0 0.0 0.0 0.0 0.0 0.0 0.0 0.0 0.0 0.0 1.0 0.0 0.0 0.0 2.6 1.5 0.2 8.5 0.0 0.0 0.0 0.0 0.0 0.0 0.0 0.0
nan nan nan nan 0.0 0.0 0.0 0.0 0.0 0.0 35.0 0.0 0.0 0.0 0.0 0.0 0.0 0.0 0.0 0.0 0.0 0.0 0.2 0.0 0.0 0.0 1.2 0.0 0.0 1.5 0.0 0.0 0.1 1.7 2.6 0.2 5.7 0.1 0.0 0.0 0.0 0.0 0.0 0.1 0.1
nan nan nan 0.0 0.0 0.0 0.0 0.0 0.0 15.5 33.9 0.1 0.0 0.0 0.0 0.0 0.0 0.0 0.0 0.0 0.0 0.0 0.0 0.0 0.0 0.0 0.0 0.0 0.0 0.0 0.2 0.0 0.6 0.7 19.1 1.0 0.5 0.3 0.4 1.3 0.0 0.0 0.0 0.0 0.1
nan nan nan 0.0 0.0 0.0 0.0 0.0 26.3 51.9 0.1 0.0 0.2 0.0 0.0 0.0 0.0 0.0 0.0 0.1 0.5 5.9 0.4 0.1 0.0 0.0 0.0 0.1 0.0 0.2 0.7 15.5 21.2 28.2 10.8 0.2 0.4 0.5 0.2 0.3 0.4 0.4 0.1 0.3 0.1
nan nan nan 0.0 0.0 0.0 0.0 0.1 51.5 7.7 1.2 0.0 0.0 0.0 0.1 0.0 0.0 0.0 0.2 0.1 0.1 0.5 1.8 3.1 5.4 0.3 0.1 0.6 2.5 0.2 2.7 7.4 10.1 7.9 2.7 0.1 7.5 2.0 1.0 1.5 2.8 1.0 1.4 0.1 0.0
nan 0.0 0.0 0.0 0.0 0.0 0.0 40.1 18.3 0.8 0.0 0.0 0.0 0.5 0.3 0.0 0.4 0.0 0.0 0.0 0.0 0.1 8.1 4.7 1.6 0.0 0.1 0.1 0.1 0.8 3.0 0.2 6.5 4.2 7.6 2.1 0.3 0.2 0.1 0.8 1.0 2.3 0.0 0.1 0.1
0.0 0.0 0.0 0.0 0.0 0.0 7.1 nan 4.4 0.0 0.1 0.3 1.7 0.8 3.7 0.7 0.5 0.2 0.0 0.0 0.0 0.0 0.0 1.1 7.3 0.0 0.1 0.4 0.1 0.3 0.1 5.2 4.9 14.9 7.7 1.8 1.1 4.6 2.0 3.8 0.7 2.3 0.4 0.3 0.1
0.0 0.3 0.0 0.0 0.0 0.2 24.4 10.0 1.5 0.0 0.1 2.5 2.6 1.7 0.8 2.7 0.2 0.5 0.2 0.1 0.1 0.1 0.0 0.2 4.2 0.9 0.6 7.6 6.6 1.6 1.5 0.9 1.6 5.3 14.0 7.9 7.1 11.4 5.2 5.2 5.8 1.4 0.5 0.8 0.4
0.0 8.2 0.0 0.0 6.5 7.6 11.3 2.9 nan 0.4 0.2 0.2 0.1 0.3 1.8 2.6 1.6 0.3 0.6 0.1 0.0 0.1 0.4 0.3 2.4 9.0 6.2 4.0 0.8 0.6 4.1 1.7 10.3 7.0 5.7 8.4 9.1 6.5 6.7 7.3 3.8 1.3 0.7 0.5 0.5
0.5 0.2 0.0 0.0 24.3 14.3 3.7 1.8 0.5 0.8 0.8 0.2 0.2 0.1 0.8 3.6 7.2 0.6 0.1 0.1 0.0 0.3 1.0 1.2 1.6 8.9 7.2 4.3 0.8 3.1 1.7 2.5 2.3 3.6 9.1 11.8 9.9 5.8 5.8 4.0 2.3 3.4 1.4 1.0 1.0
0.1 7.9 2.7 0.2 0.3 1.0 3.0 3.1 3.9 0.3 0.3 0.1 0.3 0.1 2.4 4.6 0.8 3.9 0.3 0.1 0.0 0.1 nan nan 0.9 7.7 10.6 9.4 7.4 8.7 3.8 1.1 2.5 17.0 9.9 12.3 12.0 9.5 7.3 6.1 3.5 2.5 1.9 2.9 4.7
0.2 7.7 12.0 22.5 4.4 0.8 1.0 1.2 1.3 3.3 0.4 0.2 0.9 1.5 2.9 6.7 4.4 5.3 0.2 0.2 0.1 nan 0.4 1.0 7.4 5.4 6.5 6.5 10.6 9.7 7.5 4.0 7.0 8.7 9.4 13.5 13.3 14.3 12.4 10.9 9.7 8.2 6.1 5.9 7.8
0.5 1.1 1.6 4.0 0.1 0.8 1.3 1.4 0.3 0.7 0.6 1.2 3.2 1.2 1.8 5.9 1.9 8.2 0.3 0.0 0.1 0.5 0.6 0.7 5.7 5.4 6.1 5.5 8.6 8.3 5.0 3.8 2.9 3.8 5.2 7.2 11.1 13.3 13.2 11.8 12.3 12.8 10.9 12.6 12.9
0.0 0.0 0.2 nan 1.0 3.0 1.0 0.3 0.3 0.4 0.1 0.0 0.1 1.1 2.2 1.0 0.3 0.2 0.2 0.3 0.2 2.5 1.3 2.5 6.4 9.8 17.1 4.1 2.9 13.9 18.7 8.7 11.4 7.8 4.1 11.6 16.4 19.8 21.4 16.7 16.0 14.8 15.6 16.3 16.9
Water_Equivalent
nan nan nan nan nan nan nan nan nan nan nan nan nan nan nan nan nan 0.00 0.00 0.00 0.00 nan nan 0.00 0.00 0.00 0.00 0.00 0.00 0.00 0.00 0.00 0.00 0.00 0.00 0.00 0.00 0.00 0.00 0.00 0.00 0.00 0.00 0.00 0.00
nan nan nan nan nan nan nan nan nan nan nan nan nan nan nan nan 0.00 0.00 nan nan nan nan 0.00 0.00 0.00 0.00 0.00 0.00 0.00 0.00 0.00 0.00 0.00 0.00 0.00 0.00 0.00 0.00 0.00 0.00 0.00 0.00 0.00 0.00 0.00
nan nan nan nan nan nan nan nan nan nan nan nan nan nan nan 0.00 0.00 0.00 nan nan nan 0.00 0.00 0.00 0.00 0.00 0.00 0.00 0.00 0.00 0.00 0.00 0.00 0.00 0.00 0.00 0.00 0.00 0.00 0.00 0.00 0.00 0.00 0.00 0.00
nan nan nan nan nan nan nan nan nan nan nan nan nan nan nan 0.00 0.00 0.00 nan nan nan 0.00 0.00 0.00 0.00 0.00 0.00 0.00 0.00 0.00 0.00 0.00 0.00 0.00 0.00 0.00 0.00 0.00 0.00 0.00 0.00 0.00 0.00 0.00 0.00
nan nan nan nan nan nan nan nan nan nan nan nan nan nan 0.00 0.00 0.00 0.00 nan nan 0.00 0.00 0.00 0.00 0.00 0.00 0.00 0.00 0.00 0.00 0.00 0.00 0.00 0.00 0.00 0.00 0.00 0.00 0.00 0.00 0.00 0.00 0.00 0.00 0.00
nan nan nan nan nan nan nan nan nan nan nan nan nan nan 0.00 0.00 0.00 0.00 0.00 0.00 0.00 0.00 0.00 0.00 0.00 0.00 0.00 0.00 0.00 0.00 0.00 0.00 0.00 0.00 0.00 0.00 0.00 0.00 0.00 0.00 0.00 0.00 0.00 0.00 0.00
nan nan nan nan nan nan nan nan nan nan nan nan nan 0.00 0.00 0.00 0.00 0.00 0.00 0.00 0.00 0.00 0.00 0.00 0.00 0.00 0.00 0.00 0.00 0.00 0.00 0.00 0.00 0.00 0.00 0.00 0.00 0.00 0.00 0.00 0.00 0.00 0.00 0.00 0.00
nan nan nan nan nan nan nan nan nan nan nan nan nan 0.00 0.00 0.00 0.00 0.00 0.00 0.00 0.00 0.00 0.00 0.00 0.00 0.00 0.00 0.00 0.00 0.00 0.00 0.00 0.00 0.00 0.00 0.00 0.01 0.00 0.00 0.00 0.00 0.00 0.00 0.00 0.00
nan nan nan nan nan nan nan nan nan nan nan nan 0.00 0.00 0.00 nan 0.00 0.00 0.00 0.00 0.00 0.00 0.00 0.00 0.00 0.00 0.00 0.00 0.02 0.00 0.00 0.00 0.00 0.00 0.00 0.00 0.00 0.00 0.00 0.00 0.00 0.00 0.00 0.00 0.00
nan nan nan nan nan nan nan nan nan nan 0.00 0.00 0.00 0.00 0.00 0.00 0.00 0.00 0.00 0.00 0.00 0.00 0.00 0.00 0.00 0.00 0.00 0.00 0.61 0.01 0.00 0.00 0.00 0.00 0.00 0.00 0.00 0.00 0.00 0.00 0.00 0.00 0.00 0.00 0.00
nan nan nan nan nan nan 0.00 0.00 0.00 0.00 0.00 0.00 0.00 0.00 0.00 0.00 0.00 0.00 0.00 0.00 0.00 0.00 0.00 0.00 0.00 0.07 0.00 0.00 0.00 0.00 0.01 0.01 0.00 0.00 0.00 0.00 0.01 0.00 0.00 0.00 0.00 0.00 0.00 0.00 0.00
nan nan nan nan nan nan 0.00 0.00 0.00 0.00 0.00 0.00 0.00 0.00 0.00 0.00 0.00 0.00 0.00 0.00 0.00 0.00 0.00 0.02 0.01 0.00 0.00 0.00 0.00 0.00 0.01 0.03 0.00 0.00 0.00 0.00 0.01 0.01 0.00 0.00 0.00 0.00 0.00 0.00 0.01
nan nan nan nan nan 0.00 0.00 0.00 0.00 0.00 0.00 0.00 0.00 0.00 0.00 0.00 0.00 0.00 0.00 0.00 0.00 0.00 0.00 0.02 0.00 0.00 0.00 0.00 0.01 0.01 0.02 0.01 0.00 0.00 0.00 0.00 0.07 0.02 0.00 0.00 0.00 0.00 0.00 0.00 0.01
nan nan nan nan nan 0.00 0.00 0.00 0.00 0.00 0.38 0.03 0.00 0.00 0.00 0.00 0.00 0.00 0.00 0.00 0.00 0.00 0.00 0.00 0.00 0.00 0.00 0.00 0.00 0.18 0.00 0.00 0.01 0.43 0.26 0.04 1.09 0.00 0.00 0.00 0.00 0.00 0.00 0.00 0.01
nan nan nan nan 0.00 0.00 0.00 0.00 0.00 0.00 6.72 0.00 0.00 0.00 0.00 0.00 0.00 0.00 0.00 0.00 0.00 0.00 0.05 0.01 0.00 0.01 0.24 0.00 0.00 0.29 0.00 0.00 0.02 0.32 0.34 0.03 0.72 0.01 0.00 0.00 0.00 0.00 0.00 0.01 0.02
nan nan nan 0.00 0.00 0.00 0.00 0.00 0.00 4.45 7.24 0.03 0.00 0.00 0.00 0.00 0.00 0.00 0.00 0.00 0.00 0.00 0.00 0.01 0.00 0.01 0.01 0.00 0.00 0.00 0.03 0.00 0.12 0.15 2.92 0.14 0.08 0.05 0.06 0.17 0.00 0.00 0.00 0.00 0.02
nan nan nan 0.00 0.00 0.00 0.00 0.00 7.93 13.37 0.05 0.00 0.10 0.00 0.00 0.00 0.00 0.00 0.00 0.01 0.12 1.26 0.08 0.01 0.01 0.00 0.00 0.03 0.00 0.05 0.14 2.65 3.76 4.61 1.73 0.04 0.07 0.06 0.03 0.05 0.06 0.05 0.01 0.04 0.02
nan nan nan 0.00 0.00 0.00 0.00 0.04 14.22 2.61 0.41 0.00 0.00 0.00 0.03 0.00 0.01 0.00 0.03 0.02 0.02 0.10 0.33 0.67 1.28 0.07 0.03 0.12 0.44 0.04 0.43 1.07 1.10 1.02 0.44 0.02 1.10 0.33 0.15 0.22 0.38 0.14 0.21 0.02 0.01
nan 0.00 0.00 0.00 0.00 0.00 0.00 12.03 5.18 0.24 0.00 0.01 0.01 0.14 0.11 0.00 0.12 0.01 0.00 0.01 0.00 0.03 1.44 0.85 0.35 0.00 0.03 0.04 0.01 0.13 0.50 0.03 0.89 0.69 0.77 0.41 0.05 0.04 0.02 0.12 0.14 0.29 0.01 0.02 0.02
0.00 0.00 0.00 0.00 0.00 0.00 2.44 nan 1.66 0.01 0.02 0.08 0.38 0.20 1.00 0.21 0.12 0.04 0.01 0.00 0.00 0.01 0.00 0.23 1.18 0.00 0.02 0.12 0.02 0.05 0.02 0.74 0.93 2.08 0.93 0.26 0.16 0.67 0.28 0.48 0.08 0.30 0.06 0.05 0.02
0.00 0.13 0.00 0.00 0.00 0.08 7.93 3.32 0.50 0.00 0.03 0.64 0.67 0.37 0.18 0.69 0.04 0.13 0.04 0.01 0.02 0.02 0.01 0.04 0.68 0.18 0.10 1.62 1.20 0.26 0.23 0.13 0.23 0.79 1.59 0.87 1.08 1.99 0.55 0.52 0.54 0.19 0.08 0.11 0.07
0.00 3.23 0.00 0.00 2.57 3.00 3.53 1.05 nan 0.10 0.06 0.05 0.04 0.07 0.47 0.60 0.40 0.07 0.10 0.02 0.00 0.02 0.07 0.05 0.42 1.45 1.33 0.85 0.14 0.11 0.69 0.27 1.61 0.97 0.85 1.07 0.98 1.06 0.76 0.77 0.43 0.16 0.11 0.08 0.09
0.22 0.09 0.00 0.00 7.62 4.78 1.22 0.36 0.11 0.16 0.15 0.05 0.05 0.02 0.22 0.86 1.41 0.14 0.02 0.01 0.00 0.07 0.18 0.23 0.33 1.71 1.45 0.81 0.12 0.46 0.26 0.37 0.27 0.54 1.23 1.68 1.29 0.76 0.73 0.59 0.32 0.40 0.19 0.15 0.16
0.03 2.88 1.06 0.07 0.14 0.29 0.74 0.76 0.95 0.05 0.07 0.01 0.06 0.03 0.53 0.93 0.16 0.81 0.06 0.01 0.00 0.03 nan nan 0.15 0.96 1.47 1.45 1.25 1.09 0.50 0.15 0.34 2.99 1.47 1.30 1.27 1.04 0.80 0.77 0.50 0.40 0.25 0.35 0.54
0.07 2.98 4.68 7.46 1.48 0.18 0.21 0.26 0.33 0.75 0.07 0.04 0.15 0.37 0.58 1.10 0.71 0.92 0.03 0.04 0.02 nan 0.09 0.17 1.20 0.63 0.85 0.86 1.45 1.42 0.94 0.44 0.72 1.08 1.19 1.46 1.27 1.37 1.27 1.16 1.18 1.05 0.73 0.64 0.85
0.18 0.43 0.65 1.59 0.04 0.17 0.26 0.29 0.06 0.16 0.12 0.27 0.64 0.29 0.40 0.97 0.44 1.28 0.08 0.00 0.02 0.07 0.09 0.12 1.20 0.62 0.92 0.81 1.24 1.16 0.63 0.50 0.34 0.41 0.59 0.86 1.16 1.70 1.56 1.32 1.45 1.59 1.15 1.17 1.30
0.00 0.00 0.07 nan 0.25 0.77 0.29 0.07 0.07 0.10 0.02 0.00 0.02 0.23 0.37 0.24 0.06 0.05 0.04 0.05 0.05 0.36 0.19 0.36 0.89 2.15 3.65 0.55 0.39 2.61 2.06 1.01 1.32 0.91 0.50 1.13 2.48 2.61 2.47 1.68 1.77 1.58 1.51 1.54 1.91
SL_Ratio
nan nan nan nan nan nan nan nan nan nan nan nan nan nan nan nan nan nan nan nan nan nan nan nan nan nan nan nan nan nan nan nan nan nan nan nan nan nan nan nan nan nan nan nan nan
nan nan nan nan nan nan nan nan nan nan nan nan nan nan nan nan nan nan nan nan nan nan nan nan nan nan nan nan nan nan nan nan nan nan nan nan nan nan nan nan nan nan nan nan nan
nan nan nan nan nan nan nan nan nan nan nan nan nan nan nan nan nan nan nan nan nan nan nan nan nan nan nan nan nan nan nan nan nan nan nan nan nan nan nan nan nan nan nan nan nan
nan nan nan nan nan nan nan nan nan nan nan nan nan nan nan nan nan nan nan nan nan nan nan nan nan nan nan nan nan nan nan nan nan nan nan nan nan nan nan nan nan nan nan nan nan
nan nan nan nan nan nan nan nan nan nan nan nan nan nan nan nan nan nan nan nan nan nan nan nan nan nan nan nan nan nan nan nan nan nan nan nan nan nan nan nan nan nan nan nan nan
nan nan nan nan nan nan nan nan nan nan nan nan nan nan nan nan nan nan nan nan nan nan nan nan nan nan nan nan nan nan nan nan nan nan nan nan nan nan nan nan nan nan nan nan nan
nan nan nan nan nan nan nan nan nan nan nan nan nan nan nan nan nan nan nan nan nan nan nan nan nan nan nan nan nan nan nan nan nan nan nan nan nan nan nan nan nan nan nan nan nan
nan nan nan nan nan nan nan nan nan nan nan nan nan nan nan nan nan nan nan nan nan nan nan nan nan nan nan nan nan nan nan nan nan nan nan nan 6.0 nan nan nan nan nan nan nan nan
nan nan nan nan nan nan nan nan nan nan nan nan nan nan nan nan nan nan nan nan nan nan nan nan nan nan nan nan 3.5 nan 5.0 nan nan nan nan nan nan 0.0 nan nan nan nan nan nan nan
nan nan nan nan nan nan nan nan nan nan nan nan nan nan nan nan nan nan nan nan nan nan nan nan nan nan nan 4.0 3.9 3.5 5.0 5.0 nan nan nan 5.0 nan nan nan nan nan nan nan nan nan
nan nan nan nan nan nan nan nan nan nan nan nan nan nan nan nan nan nan nan nan nan nan nan nan nan 2.9 nan nan nan nan 4.5 5.0 nan nan 5.0 nan 5.0 nan nan nan nan nan nan nan nan
nan nan nan nan nan nan nan nan nan nan nan nan nan nan nan nan nan nan nan nan nan nan nan 3.1 3.1 nan nan nan nan nan 4.7 4.5 nan nan 5.0 4.0 5.6 4.4 nan nan nan nan nan nan 5.0
nan nan nan nan nan nan nan nan nan nan nan nan nan nan nan nan nan nan nan nan nan nan nan 3.0 nan nan nan nan 3.6 4.4 4.7 5.0 5.7 nan nan 5.0 6.2 5.2 4.0 nan nan nan 5.0 5.0 5.6
nan nan nan nan nan nan nan nan nan nan 3.4 4.4 nan nan nan nan nan nan nan nan nan nan nan 5.0 nan nan nan 5.0 5.0 5.2 nan nan 3.7 6.2 6.0 5.4 7.8 nan nan nan nan nan 5.0 6.4 6.0
nan nan nan nan nan nan nan nan nan nan 5.2 nan nan nan nan nan nan nan nan nan nan nan 3.5 3.8 5.0 3.6 4.9 nan nan 5.2 nan 3.3 4.4 5.3 7.6 6.1 8.0 6.7 nan nan nan nan 10.0 6.4 6.0
nan nan nan nan nan nan nan nan nan 3.5 4.7 4.4 nan nan nan nan nan nan nan nan nan nan nan 3.2 nan 3.4 3.2 nan nan 0.0 4.8 3.3 4.8 4.9 6.5 7.2 6.2 7.1 7.3 7.5 nan nan nan nan 5.8
nan nan nan nan nan nan nan nan 3.3 3.9 2.6 7.5 2.5 nan nan 5.0 nan nan nan 5.0 4.4 4.7 4.7 3.9 3.2 nan 2.5 4.0 nan 3.8 5.1 5.8 5.6 6.1 6.3 5.6 5.3 7.4 6.5 6.5 6.7 7.6 6.3 5.9 5.3
nan nan nan nan nan nan nan 2.4 3.6 3.0 2.9 nan nan nan 2.7 nan 3.5 3.3 5.5 5.9 4.4 5.4 5.4 4.6 4.2 3.8 2.7 5.1 5.6 5.5 6.3 6.9 9.1 7.7 6.1 5.8 6.8 6.0 6.7 6.8 7.3 7.6 6.6 5.8 4.6
nan nan nan nan nan nan 5.0 3.3 3.5 3.4 3.0 3.3 4.1 3.4 3.0 2.5 3.4 5.0 5.0 4.3 5.0 4.3 5.6 5.6 4.4 3.6 3.3 3.5 3.9 5.8 6.0 6.0 7.2 6.2 9.8 5.1 6.3 5.9 5.4 6.0 7.3 7.9 4.3 4.6 4.5
nan nan nan nan nan nan 2.9 nan 2.6 3.6 3.1 3.8 4.4 4.0 3.7 3.1 3.8 3.8 5.0 3.3 nan 3.7 3.3 5.0 6.2 nan 5.2 3.4 3.5 5.3 5.3 7.0 5.3 7.1 8.2 6.8 6.9 6.9 7.0 8.0 8.5 7.6 6.5 5.6 4.6
nan 2.5 nan nan nan 2.6 3.1 3.0 3.0 3.3 3.2 3.9 4.0 4.6 4.2 3.9 4.3 3.9 5.3 4.5 4.2 4.4 3.6 4.4 6.2 4.8 5.5 4.7 5.5 6.2 6.6 6.8 7.0 6.7 8.8 9.1 6.5 5.7 9.4 10.0 10.6 7.4 6.9 7.0 6.5
nan 2.5 nan nan 2.5 2.5 3.2 2.7 nan 4.3 3.3 3.5 3.9 4.5 4.0 4.4 4.0 4.7 5.6 5.4 nan 4.4 6.0 5.2 5.8 6.2 4.6 4.7 5.5 6.0 6.0 6.4 6.4 7.2 6.8 7.8 9.3 6.1 8.9 9.4 8.9 8.0 6.9 6.0 6.0
2.5 2.6 nan nan 3.2 3.0 3.0 5.1 4.3 5.0 5.2 4.0 4.3 3.6 3.7 4.2 5.1 4.2 5.5 4.7 3.8 4.5 5.5 5.2 4.8 5.2 5.0 5.3 6.6 6.6 6.7 6.6 8.3 6.6 7.4 7.0 7.6 7.7 7.9 6.8 7.3 8.4 7.2 6.4 6.1
2.6 2.8 2.5 2.5 2.5 3.4 4.0 4.0 4.1 5.4 5.0 3.9 5.3 3.8 4.6 4.9 4.9 4.8 4.6 5.0 nan 4.4 nan nan 5.8 8.0 7.2 6.5 5.9 8.0 7.6 7.9 7.5 5.7 6.7 9.5 9.4 9.1 9.2 7.8 6.9 6.1 7.4 8.3 8.7
2.5 2.6 2.6 3.0 2.9 4.4 4.7 4.5 3.9 4.4 4.7 4.4 6.1 4.1 5.0 6.1 6.2 5.7 5.3 6.4 5.3 nan 4.6 5.8 6.2 8.6 7.7 7.6 7.3 6.8 8.0 9.1 9.7 8.1 7.9 9.2 10.4 10.4 9.7 9.4 8.2 7.8 8.3 9.2 9.2
2.7 2.5 2.5 2.5 3.4 4.7 4.9 4.7 4.7 4.6 5.0 4.3 5.1 4.2 4.5 6.1 4.3 6.4 4.3 5.0 3.8 6.4 6.5 6.0 4.8 8.8 6.7 6.7 7.0 7.1 7.9 7.6 8.6 9.2 8.8 8.3 9.5 7.8 8.5 8.9 8.5 8.0 9.5 10.7 9.9
nan nan 2.5 nan 4.0 3.8 3.3 4.7 4.5 4.2 3.5 3.3 3.9 4.7 6.1 4.2 4.5 4.1 5.1 5.5 5.3 6.8 6.5 6.9 7.2 4.6 4.7 7.5 7.6 5.3 9.1 8.6 8.6 8.6 8.3 10.3 6.6 7.6 8.7 9.9 9.0 9.3 10.4 10.6 8.9